• Join FlightAware (Why Join?)
  • Login
  • US Flag 
09:36AM EST


 

Airport Tracker/Info


-or-


 

Live Flight TrackerFlight Track Log ✈ DAL3741 ✈ 18-Apr-2013 ✈ KMSP - KCWA

Flight Track Log - Related Links

Times and Time Zones

All times are in EDT time to prevent confusion due to time zone crossing. See the DAL3741 flight status page for this flight to view local times or setup timezone preferences in your user account.

Time Position Orientation Groundspeed Altitude Reporting Facility
EDT Latitude Longitude Course Direction KTS MPH feet Rate Location/Type
04:07PM 44.9014 -93.2481 66° East 162 186 2,400  Level FAA TRACON SMA TRACON (SMA)
04:07PM 44.9144 -93.2519 348° North 160 184 3,000 2,154 Climbing FAA TRACON SMA TRACON (SMA)
04:07PM 44.9286 -93.2550 351° North 163 188 3,800 2,100 Climbing FAA TRACON SMA TRACON (SMA)
04:08PM 44.9481 -93.2608 348° North 182 209 4,400 1,200 Climbing FAA TRACON SMA TRACON (SMA)
04:08PM 44.9669 -93.2656 350° North 212 244 4,600 1,350 Climbing FAA TRACON SMA TRACON (SMA)
04:08PM 44.9861 -93.2594 13° North 238 274 5,300 1,950 Climbing FAA TRACON SMA TRACON (SMA)
04:09PM 44.9981 -93.2375 52° Northeast 243 280 5,900 1,846 Climbing FAA TRACON SMA TRACON (SMA)
04:09PM 45.0067 -93.2022 71° East 246 283 6,500 1,650 Climbing FAA TRACON SMA TRACON (SMA)
04:09PM 45.0153 -93.1731 67° East 258 297 7,000 1,610 Climbing FAA TRACON SMA TRACON (SMA)
04:10PM 45.0242 -93.1425 68° East 269 310 7,600 1,800 Climbing FAA TRACON SMA TRACON (SMA)
04:10PM 45.0364 -93.1033 66° East 281 323 8,200 1,463 Climbing FAA TRACON SMA TRACON (SMA)
04:10PM 45.0469 -93.0711 65° Northeast 292 336 8,600 1,200 Climbing FAA TRACON SMA TRACON (SMA)
04:11PM 45.0578 -93.0375 65° Northeast 303 349 9,000 1,846 Climbing FAA TRACON SMA TRACON (SMA)
04:11PM 45.0717 -92.9944 65° Northeast 312 359 9,800 2,049 Climbing FAA TRACON SMA TRACON (SMA)
04:11PM 45.0836 -92.9603 64° Northeast 316 364 10,400 1,024 Climbing FAA TRACON SMA TRACON (SMA)
04:12PM 45.0749 -92.4941 66° East  Level FlightAware Approximate
04:12PM 45.0956 -92.9239 65° Northeast 325 374 10,500  Level FAA TRACON SMA TRACON (SMA)
04:12PM 45.1114 -92.8758 65° Northeast 348 400 10,600 600 Climbing FAA TRACON SMA TRACON (SMA)
04:12PM 45.1253 -92.8369 63° Northeast 361 415 10,900 1,077 Climbing FAA TRACON SMA TRACON (SMA)
04:13PM 45.1386 -92.7961 65° Northeast 369 425 11,300 1,950 Climbing FAA TRACON SMA TRACON (SMA)
04:13PM 45.1553 -92.7456 65° Northeast 369 425 12,200 1,902 Climbing FAA TRACON SMA TRACON (SMA)
04:13PM 45.1689 -92.7058 64° Northeast 367 422 12,600 1,050 Climbing FAA TRACON SMA TRACON (SMA)
04:14PM 45.1828 -92.6653 64° Northeast 371 427 12,900 450 Climbing FAA TRACON SMA TRACON (SMA)
04:14PM 45.2008 -92.6131 64° Northeast 380 437 12,900 150 Level FAA TRACON SMA TRACON (SMA)
04:14PM 45.2147 -92.5703 65° Northeast 387 445 13,000 150 Climbing FAA TRACON SMA TRACON (SMA)
04:15PM 45.2292 -92.5272 65° Northeast 393 452 13,000  Level FAA TRACON SMA TRACON (SMA)
04:15PM 45.2469 -92.4717 66° East 399 459 13,000 -150 Level FAA TRACON SMA TRACON (SMA)
04:15PM 45.2617 -92.4275 65° Northeast 402 463 12,900 -154 Descending FAA TRACON SMA TRACON (SMA)
04:16PM 45.2767 -92.3836 64° Northeast 402 463 12,900  Level FAA TRACON SMA TRACON (SMA)
04:16PM 45.2958 -92.3294 63° Northeast 401 461 12,900  Level FAA TRACON SMA TRACON (SMA)
04:16PM 45.3067 -92.2831 72° East 400 460 12,900  Level FAA TRACON SMA TRACON (SMA)
04:17PM 45.3119 -92.2372 81° East 391 450 12,900  Level FAA TRACON SMA TRACON (SMA)
04:17PM 45.3072 -92.1833 97° East 374 430 12,900 150 Level FAA TRACON SMA TRACON (SMA)
04:17PM 45.2981 -92.1417 107° East 370 426 13,000 154 Climbing FAA TRACON SMA TRACON (SMA)
04:18PM 45.2875 -92.0989 109° East 367 422 13,000  Level FAA TRACON SMA TRACON (SMA)
04:18PM 45.2775 -92.0567 109° East 367 422 13,000  Level FAA TRACON SMA TRACON (SMA)
04:18PM 45.2656 -92.0047 108° East 367 422 13,000  Level FAA TRACON SMA TRACON (SMA)
04:19PM 45.2558 -91.9628 108° East 366 421 13,000  Level FAA TRACON SMA TRACON (SMA)
04:19PM 45.2450 -91.9200 110° East 367 422 13,000 -225 Level FAA TRACON SMA TRACON (SMA)
04:20PM 45.2031 -91.7908 115° Southeast 364 419 12,700 -639 Descending Minneapolis Center
04:21PM 45.1694 -91.6647 111° Southeast 352 405 11,700 -968 Descending Minneapolis Center
04:22PM 45.1408 -91.5444 109° East 335 386 10,700 -1,073 Descending Minneapolis Center
04:23PM 45.1061 -91.4031 109° East 325 374 9,500 -1,122 Descending Minneapolis Center
04:24PM 45.0742 -91.2808 110° East 318 366 8,400 -1,024 Descending Minneapolis Center
04:25PM 45.0458 -91.1667 109° East 319 367 7,400 -683 Descending Minneapolis Center
04:26PM 45.0156 -91.0483 110° East 310 357 7,000 -194 Descending Minneapolis Center
04:27PM 44.9908 -90.9508 110° East 257 296 7,000  Level Minneapolis Center
04:28PM 44.9642 -90.8481 110° East 264 304 7,000  Level Minneapolis Center
04:29PM 44.9403 -90.7572 110° East 260 299 7,000  Level Minneapolis Center
04:30PM 44.9139 -90.6550 110° East 265 305 7,000  Level Minneapolis Center
04:31PM 44.8875 -90.5525 110° East 266 306 7,000  Level Minneapolis Center
04:32PM 44.8617 -90.4528 110° East 263 303 7,000  Level Minneapolis Center
04:33PM 44.8369 -90.3614 111° Southeast 259 298 7,000 -390 Level Minneapolis Center
04:34PM 44.8108 -90.2617 110° East 259 298 6,200 -919 Descending Minneapolis Center
04:35PM 44.7850 -90.1667 111° Southeast 251 289 5,100 -1,024 Descending Minneapolis Center
04:36PM 44.7594 -90.0700 110° East 251 289 4,100 -537 Descending Minneapolis Center
04:37PM 44.7394 -89.9808 107° East 250 288 4,000 -49 Descending Minneapolis Center
04:38PM 44.7442 -89.8931 86° East 218 251 4,000  Level Minneapolis Center